Torna al catalogo

STARLINK-5506

AttivoComunicazioniVLEO
NORAD 55651·PAYLOAD·🇺🇸 United States

Lanciato Feb 17, 2023 da Vandenberg Space Force Base

Loading…

Prossimi Passaggi (prossime 24 ore)

TLE

AggiornatoSource: CelesTrak SupGP

Epoca: Sep 14, 2026, 22:21 UTC

1 55651C 23021Z   26257.93173611  .00022018  00000+0  18451-2 0  2573
2 55651  70.0013  67.3968 0003015 273.8479 167.2891 14.98322618    12

Traccia STARLINK-5506 in tempo reale con AllMySat

Download on the App Store